Tracking 34719 objects as of 12-Jul-2026
HD Live streaming from Space Station
objects crossing your sky now

OBJECT Y


OBJECT Y is no longer on orbit


NORAD ID: 44361
Int'l Code: 2019-036Y
Perigee: N/A
Apogee: N/A
Inclination: N/A
Period: N/A
Semi major axis: N/A
RCS: N/A
Launch date: June 25, 2019
Source: United States (US)
Launch site: AIR FORCE EASTERN TEST RANGE (AFETR)
Decay date: 2021-11-06

Note: This is SATELLITE DEBRIS
Your satellite tracking list
Your tracking list is empty




NASA's NSSDC Master Catalog

Two Line Element Set (TLE):
1 44361U 19036Y   21309.68581150  .05500442 -73872-5  13574-2 0  9991
2 44361  28.4940  77.0256 0026016 325.8605  34.0344 16.26901669132132
Source of the keplerian elements: Caltech